Torna al catalogo

STARLINK-2103

AttivoComunicazioniVLEO
NORAD 47383·PAYLOAD·🇺🇸 United States

Lanciato Jan 20, 2021 da Cape Canaveral Space Force Station

Loading…

Prossimi Passaggi (prossime 24 ore)

TLE

AggiornatoSource: CelesTrak SupGP

Epoca: Sep 14, 2026, 20:48 UTC

1 47383C 21005AL  26257.86715278  .00035359  00000+0  79529-3 0  2575
2 47383  53.1549 208.8464 0001635  58.7004  12.7609 15.42720695    12

Traccia STARLINK-2103 in tempo reale con AllMySat

Download on the App Store